FW3222 Weather Reports


Display with metric or nautical units.
time (UTC)temp
F
wind
direction
speed
MPH
gust
MPH
rain 1hr
in
rain 24hr
in
rain mn
in
humidity
%
barometer
mb
20260508012511 58 292 0.0 2.0 0.00 0.00 0.00 34 1010.6
20260508012211 58 306 0.0 2.0 0.00 0.00 0.00 33 1010.6
20260508011912 58 277 0.0 2.0 0.00 0.00 0.00 33 1010.6
20260508011616 58 275 0.0 1.0 0.00 0.00 0.00 32 1010.4
20260508011312 59 272 0.0 1.0 0.00 0.00 0.00 32 1010.5
20260508011005 59 297 0.0 0.0 0.00 0.00 0.00 32 1010.3
20260508010656 59 300 0.0 0.0 0.00 0.00 0.00 33 1010.3
20260508010354 59 300 0.0 3.0 0.00 0.00 0.00 32 1010.2
20260508010058 59 290 0.0 3.0 0.00 0.00 0.00 31 1010.1
20260508005801 59 283 0.0 6.0 0.00 0.00 0.00 31 1010.3
20260508005451 59 284 0.0 6.0 0.00 0.00 0.00 31 1010.2
20260508005151 59 286 1.0 6.0 0.00 0.00 0.00 30 1010.2
20260508004418 60 254 2.0 7.0 0.00 0.00 0.00 30 1010.0
20260508004110 60 312 2.0 7.0 0.00 0.00 0.00 29 1010.0
20260508003805 60 278 2.0 7.0 0.00 0.00 0.00 30 1010.0
20260508003456 60 263 2.0 7.0 0.00 0.00 0.00 29 1010.0
20260508003159 60 300 2.0 7.0 0.00 0.00 0.00 30 1009.9
20260508002848 60 292 1.0 6.0 0.00 0.00 0.00 30 1009.9
20260508002543 60 294 1.0 5.0 0.00 0.00 0.00 29 1009.8
20260508002240 60 277 1.0 5.0 0.00 0.00 0.00 29 1009.7
20260508001938 60 289 1.0 6.0 0.00 0.00 0.00 29 1009.7
20260508001642 60 297 1.0 6.0 0.00 0.00 0.00 29 1009.6
20260508001337 61 323 1.0 6.0 0.00 0.00 0.00 29 1009.7
20260508000616 61 292 1.0 7.0 0.00 0.00 0.00 28 1009.5
20260508000315 61 263 1.0 7.0 0.00 0.00 0.00 29 1009.6
20260508000004 61 292 1.0 8.0 0.00 0.00 0.00 28 1009.6
20260507235250 61 355 2.0 8.0 0.00 0.00 0.00 27 1009.5
20260507234104 62 272 2.0 9.0 0.00 0.00 0.00 26 1009.5
20260507233338 62 301 4.0 9.0 0.00 0.00 0.00 25 1009.3
20260507233042 62 271 4.0 9.0 0.00 0.00 0.00 26 1009.3
20260507232732 62 317 3.0 9.0 0.00 0.00 0.00 26 1009.4
20260507232430 62 297 3.0 9.0 0.00 0.00 0.00 26 1009.4
20260507232127 63 277 2.0 9.0 0.00 0.00 0.00 26 1009.3
20260507231816 63 271 2.0 7.0 0.00 0.00 0.00 27 1009.3
20260507231505 63 307 2.0 11.0 0.00 0.00 0.00 25 1009.3
20260507230725 63 350 3.0 11.0 0.00 0.00 0.00 27 1009.2
20260507230419 63 294 3.0 11.0 0.00 0.00 0.00 24 1009.1
20260507230109 63 260 2.0 11.0 0.00 0.00 0.00 24 1009.2
20260507225801 63 15 2.0 11.0 0.00 0.00 0.00 25 1009.0
20260507225450 64 332 2.0 8.0 0.00 0.00 0.00 26 1009.0
20260507225148 64 282 2.0 8.0 0.00 0.00 0.00 26 1008.9
20260507224844 64 18 2.0 8.0 0.00 0.00 0.00 24 1008.9
20260507224547 64 322 2.0 8.0 0.00 0.00 0.00 25 1009.0
20260507224249 64 273 2.0 8.0 0.00 0.00 0.00 25 1009.0
20260507223517 64 348 2.0 8.0 0.00 0.00 0.00 25 1009.0
20260507223207 64 355 2.0 8.0 0.00 0.00 0.00 26 1008.9
20260507222903 64 317 2.0 8.0 0.00 0.00 0.00 24 1008.9
20260507222600 64 304 2.0 8.0 0.00 0.00 0.00 25 1009.0
20260507222251 65 290 2.0 6.0 0.00 0.00 0.00 23 1009.0
20260507221942 65 274 2.0 11.0 0.00 0.00 0.00 23 1008.9
20260507221206 65 325 4.0 11.0 0.00 0.00 0.00 23 1008.9
20260507220907 65 240 3.0 11.0 0.00 0.00 0.00 22 1008.8
20260507220554 65 5 2.0 11.0 0.00 0.00 0.00 22 1008.7
20260507215830 65 5 2.0 7.0 0.00 0.00 0.00 24 1008.8
20260507215534 65 264 2.0 7.0 0.00 0.00 0.00 23 1008.7
20260507215226 65 348 3.0 7.0 0.00 0.00 0.00 23 1008.7
20260507214917 65 311 2.0 7.0 0.00 0.00 0.00 24 1008.6
20260507214607 65 350 1.0 7.0 0.00 0.00 0.00 26 1008.6
20260507214301 65 336 1.0 9.0 0.00 0.00 0.00 26 1008.6
20260507213958 65 325 1.0 9.0 0.00 0.00 0.00 24 1008.5
20260507213223 66 350 2.0 9.0 0.00 0.00 0.00 24 1008.7
20260507212925 66 304 3.0 9.0 0.00 0.00 0.00 22 1008.6
20260507212200 65 302 2.0 8.0 0.00 0.00 0.00 23 1008.8
20260507211900 65 9 2.0 6.0 0.00 0.00 0.00 25 1008.6
20260507211556 65 116 2.0 6.0 0.00 0.00 0.00 22 1008.6
20260507210411 65 270 2.0 9.0 0.00 0.00 0.00 21 1008.8
20260507210109 66 305 2.0 9.0 0.00 0.00 0.00 21 1008.7
20260507205805 66 267 2.0 9.0 0.00 0.00 0.00 23 1008.8
20260507205459 66 16 1.0 9.0 0.00 0.00 0.00 25 1008.9
20260507205200 65 38 1.0 9.0 0.00 0.00 0.00 23 1008.8
20260507204847 66 343 1.0 7.0 0.00 0.00 0.00 24 1008.8
20260507204131 67 275 1.0 7.0 0.00 0.00 0.00 21 1008.9
20260507203821 67 0 2.0 11.0 0.00 0.00 0.00 21 1008.9
20260507203056 68 275 3.0 11.0 0.00 0.00 0.00 21 1008.7
20260507202753 68 276 3.0 11.0 0.00 0.00 0.00 22 1008.7
20260507202452 68 321 2.0 11.0 0.00 0.00 0.00 24 1008.8
20260507202141 67 255 2.0 11.0 0.00 0.00 0.00 22 1008.7
20260507201839 67 149 2.0 7.0 0.00 0.00 0.00 24 1008.8
20260507201527 68 30 2.0 8.0 0.00 0.00 0.00 21 1008.8
20260507200745 68 333 2.0 8.0 0.00 0.00 0.00 25 1008.9
20260507200440 68 311 2.0 8.0 0.00 0.00 0.00 25 1009.1
20260507200127 68 272 1.0 8.0 0.00 0.00 0.00 26 1009.1
20260507195824 68 36 1.0 8.0 0.00 0.00 0.00 26 1009.2
20260507195527 67 302 1.0 8.0 0.00 0.00 0.00 24 1009.1
20260507195230 67 274 2.0 8.0 0.00 0.00 0.00 28 1009.2
20260507194932 67 261 3.0 8.0 0.00 0.00 0.00 22 1009.1
20260507194625 67 355 3.0 8.0 0.00 0.00 0.00 24 1009.2
20260507194325 67 16 2.0 8.0 0.00 0.00 0.00 25 1009.2
20260507194012 66 255 1.0 9.0 0.00 0.00 0.00 24 1009.4
20260507193714 66 182 1.0 9.0 0.00 0.00 0.00 22 1009.4
20260507193411 67 269 1.0 9.0 0.00 0.00 0.00 25 1009.5
20260507192635 66 278 2.0 9.0 0.00 0.00 0.00 22 1009.6
20260507192322 66 355 2.0 9.0 0.00 0.00 0.00 26 1009.6
20260507192024 66 63 2.0 8.0 0.00 0.00 0.00 24 1009.6
20260507191723 66 288 1.0 8.0 0.00 0.00 0.00 28 1009.8
20260507191422 66 341 1.0 8.0 0.00 0.00 0.00 29 1009.8
20260507191111 66 34 1.0 5.0 0.00 0.00 0.00 22 1009.7
20260507190803 66 170 2.0 5.0 0.00 0.00 0.00 26 1009.8
20260507190501 65 242 2.0 10.0 0.00 0.00 0.00 25 1009.8
20260507190203 65 22 3.0 10.0 0.00 0.00 0.00 26 1009.8
20260507185905 65 192 3.0 10.0 0.00 0.00 0.00 23 1009.9
20260507185600 65 236 3.0 10.0 0.00 0.00 0.00 24 1009.9
20260507185301 66 205 3.0 10.0 0.00 0.00 0.00 22 1010.0
20260507184948 66 273 3.0 10.0 0.00 0.00 0.00 22 1010.1
20260507184636 66 226 2.0 9.0 0.00 0.00 0.00 23 1010.1
20260507184333 66 313 2.0 9.0 0.00 0.00 0.00 23 1010.0
20260507184026 66 17 2.0 9.0 0.00 0.00 0.00 25 1010.1
20260507182840 65 305 5.0 14.0 0.00 0.00 0.00 23 1010.2
20260507182528 66 209 5.0 14.0 0.00 0.00 0.00 22 1010.2
20260507181801 66 9 2.0 8.0 0.00 0.00 0.00 25 1010.3
20260507181038 65 265 2.0 7.0 0.00 0.00 0.00 29 1010.3
20260507180727 65 182 2.0 7.0 0.00 0.00 0.00 25 1010.4
20260507180418 65 319 2.0 7.0 0.00 0.00 0.00 23 1010.5
20260507180117 65 46 2.0 6.0 0.00 0.00 0.00 27 1010.6
20260507175807 65 340 2.0 6.0 0.00 0.00 0.00 28 1010.6
20260507175508 65 238 2.0 6.0 0.00 0.00 0.00 26 1010.6
20260507175156 64 28 2.0 4.0 0.00 0.00 0.00 26 1010.7
20260507171625 64 312 1.0 9.0 0.00 0.00 0.00 27 1011.5
20260507171323 64 312 1.0 9.0 0.00 0.00 0.00 27 1011.5
20260507170558 64 312 1.0 9.0 0.00 0.00 0.00 27 1011.5
20260507170256 64 173 2.0 9.0 0.00 0.00 0.00 27 1011.5
20260507165948 64 200 3.0 9.0 0.00 0.00 0.00 27 1011.6
20260507165640 64 134 3.0 9.0 0.00 0.00 0.00 24 1011.6
20260507164920 63 259 2.0 9.0 0.00 0.00 0.00 24 1011.7
20260507164616 64 254 3.0 9.0 0.00 0.00 0.00 27 1011.7
20260507163901 63 242 4.0 11.0 0.00 0.00 0.00 27 1011.8
20260507163600 63 284 4.0 11.0 0.00 0.00 0.00 27 1011.9
20260507163301 63 240 4.0 11.0 0.00 0.00 0.00 26 1011.9
20260507162951 63 292 4.0 13.0 0.00 0.00 0.00 27 1012.1
20260507162231 62 259 4.0 13.0 0.00 0.00 0.00 29 1012.2
20260507161509 61 92 3.0 13.0 0.00 0.00 0.00 29 1012.2
20260507161157 61 5 3.0 13.0 0.00 0.00 0.00 27 1012.3
20260507160852 61 96 2.0 7.0 0.00 0.00 0.00 27 1012.5
20260507155219 61 339 3.0 13.0 0.00 0.00 0.00 31 1012.4
20260507154501 60 22 2.0 9.0 0.00 0.00 0.00 31 1012.4
20260507154151 60 335 3.0 9.0 0.00 0.00 0.00 29 1012.4
20260507153438 59 325 3.0 9.0 0.00 0.00 0.00 29 1012.5
20260507152705 59 22 3.0 9.0 0.00 0.00 0.00 30 1012.7
20260507152359 59 24 2.0 9.0 0.00 0.00 0.00 30 1012.8
20260507152053 59 281 3.0 9.0 0.00 0.00 0.00 31 1012.9
20260507151757 59 15 3.0 9.0 0.00 0.00 0.00 28 1012.9
20260507151451 59 5 3.0 9.0 0.00 0.00 0.00 30 1013.1
20260507151138 59 71 2.0 10.0 0.00 0.00 0.00 34 1013.1
20260507150828 58 302 3.0 10.0 0.00 0.00 0.00 30 1013.1
20260507150522 58 277 3.0 10.0 0.00 0.00 0.00 29 1013.1
20260507150220 58 26 3.0 11.0 0.00 0.00 0.00 33 1013.3
20260507145922 58 355 3.0 11.0 0.00 0.00 0.00 30 1013.3
20260507145626 57 30 4.0 11.0 0.00 0.01 0.00 30 1013.4
20260507145316 57 41 4.0 11.0 0.00 0.01 0.00 30 1013.3
20260507145021 57 276 4.0 11.0 0.00 0.01 0.00 33 1013.5
20260507144708 57 249 3.0 11.0 0.00 0.02 0.00 30 1013.4
20260507144401 57 345 3.0 8.0 0.00 0.03 0.00 29 1013.4
20260507144057 57 342 3.0 11.0 0.00 0.03 0.00 31 1013.5
20260507143755 57 45 3.0 11.0 0.00 0.04 0.00 32 1013.5
20260507143042 57 309 3.0 11.0 0.00 0.06 0.00 34 1013.6
20260507142729 56 350 2.0 11.0 0.00 0.07 0.00 33 1013.6
20260507142425 56 249 3.0 11.0 0.00 0.08 0.00 32 1013.7
20260507142112 56 335 3.0 10.0 0.00 0.09 0.00 31 1013.7
20260507141810 56 5 2.0 10.0 0.00 0.09 0.00 31 1013.7
20260507141513 56 355 3.0 10.0 0.00 0.09 0.00 31 1013.7
20260507140745 55 38 2.0 10.0 0.00 0.12 0.00 33 1013.8
20260507140442 55 327 2.0 7.0 0.00 0.14 0.00 33 1013.9
20260507140130 55 331 2.0 7.0 0.00 0.16 0.00 37 1013.9
20260507135833 54 21 2.0 7.0 0.00 0.17 0.00 34 1014.0
20260507135537 54 68 1.0 7.0 0.00 0.17 0.00 35 1014.1
20260507135228 54 68 1.0 10.0 0.00 0.19 0.00 35 1014.0
20260507134927 54 132 2.0 10.0 0.00 0.19 0.00 34 1014.1
20260507134616 54 9 1.0 10.0 0.00 0.19 0.00 35 1014.1
20260507134320 54 13 2.0 10.0 0.00 0.19 0.00 36 1014.2
20260507134022 53 355 2.0 10.0 0.00 0.19 0.00 35 1014.2
20260507133724 53 282 2.0 10.0 0.00 0.19 0.00 34 1014.2
20260507133411 54 329 2.0 7.0 0.00 0.19 0.00 36 1014.4
20260507132657 54 343 2.0 6.0 0.00 0.20 0.00 36 1014.3
20260507132349 53 271 1.0 6.0 0.00 0.21 0.00 37 1014.3
20260507131639 53 275 1.0 2.0 0.00 0.22 0.00 36 1014.3
20260507131335 53 60 2.0 8.0 0.00 0.22 0.00 38 1014.3
20260507131025 53 24 2.0 8.0 0.00 0.23 0.00 36 1014.2
20260507130713 53 28 2.0 8.0 0.00 0.23 0.00 39 1014.2
20260507125943 53 292 2.0 7.0 0.00 0.23 0.00 38 1014.1
20260507125640 53 259 2.0 7.0 0.00 0.23 0.00 38 1014.1
20260507125328 53 267 2.0 7.0 0.00 0.23 0.00 37 1014.1
20260507125028 53 281 2.0 7.0 0.00 0.23 0.00 36 1014.1
20260507124732 53 240 2.0 7.0 0.00 0.23 0.00 35 1014.1
20260507123956 53 323 1.0 7.0 0.00 0.23 0.00 36 1014.1
20260507123651 53 321 1.0 7.0 0.00 0.24 0.00 35 1014.1
20260507123338 53 267 1.0 7.0 0.00 0.24 0.00 36 1014.1
20260507122605 53 348 2.0 7.0 0.00 0.24 0.00 35 1014.2
20260507122300 53 15 2.0 8.0 0.00 0.24 0.00 34 1014.2
20260507121947 53 355 2.0 8.0 0.00 0.24 0.00 34 1014.3
20260507121224 54 294 2.0 8.0 0.00 0.24 0.00 33 1014.2
20260507120918 54 273 1.0 8.0 0.00 0.25 0.00 33 1014.2
20260507120157 54 5 1.0 6.0 0.00 0.25 0.00 33 1014.2
20260507115850 54 48 1.0 6.0 0.00 0.25 0.00 34 1014.2
20260507115540 54 309 1.0 6.0 0.00 0.26 0.00 33 1014.1
20260507114820 54 251 0.0 5.0 0.00 0.26 0.00 36 1014.1
20260507114520 54 232 1.0 3.0 0.00 0.27 0.00 35 1014.2
20260507114211 53 30 1.0 7.0 0.00 0.27 0.00 35 1014.2
20260507113909 53 306 1.0 7.0 0.00 0.27 0.00 35 1014.2
20260507112729 52 284 1.0 7.0 0.00 0.28 0.00 37 1014.0
20260507112416 51 325 1.0 7.0 0.00 0.28 0.00 39 1013.9
20260507112105 51 5 1.0 4.0 0.00 0.29 0.00 39 1013.9
20260507111757 51 333 0.0 5.0 0.00 0.29 0.00 41 1013.7
20260507111447 50 355 0.0 5.0 0.00 0.29 0.00 40 1013.7
20260507111144 50 287 0.0 5.0 0.00 0.29 0.00 40 1013.7
20260507110840 50 327 0.0 5.0 0.00 0.29 0.00 39 1013.7
20260507110539 50 338 0.0 5.0 0.00 0.29 0.00 40 1013.6
20260507110229 50 341 0.0 5.0 0.00 0.29 0.00 41 1013.7
20260507105927 50 62 0.0 4.0 0.00 0.29 0.00 39 1013.5
20260507104738 50 241 0.0 3.0 0.00 0.29 0.00 42 1013.4
20260507104006 50 290 0.0 3.0 0.00 0.29 0.00 44 1013.3
20260507103706 50 321 0.0 5.0 0.00 0.29 0.00 42 1013.3
20260507103352 50 17 0.0 5.0 0.00 0.29 0.00 42 1013.3
20260507103052 50 22 0.0 5.0 0.00 0.29 0.00 42 1013.2
20260507102739 50 30 0.0 1.0 0.00 0.29 0.00 43 1013.1
20260507102442 50 330 0.0 1.0 0.00 0.29 0.00 42 1013.2
20260507102136 50 347 0.0 1.0 0.00 0.29 0.00 44 1013.1
20260507101838 50 347 0.0 1.0 0.00 0.29 0.00 42 1013.2
20260507101542 50 11 0.0 1.0 0.00 0.29 0.00 42 1013.2
20260507101240 50 313 0.0 1.0 0.00 0.29 0.00 42 1013.1
20260507100938 50 313 0.0 1.0 0.00 0.29 0.00 43 1013.0
20260507100639 51 304 1.0 2.0 0.00 0.29 0.00 42 1013.0
20260507100330 51 294 0.0 2.0 0.00 0.29 0.00 42 1012.8
20260507100032 51 288 0.0 5.0 0.00 0.29 0.00 43 1012.8
20260507095724 50 328 0.0 5.0 0.00 0.29 0.00 41 1012.9
20260507095414 51 11 0.0 0.0 0.00 0.29 0.00 43 1013.0
20260507095118 51 13 0.0 3.0 0.00 0.29 0.00 42 1013.0
20260507094803 51 311 0.0 2.0 0.00 0.29 0.00 43 1012.8
20260507094503 51 288 0.0 2.0 0.00 0.29 0.00 43 1012.8
20260507094201 51 310 0.0 0.0 0.00 0.29 0.00 43 1012.8
20260507093900 51 304 1.0 6.0 0.00 0.29 0.00 43 1012.7
20260507093602 51 307 1.0 6.0 0.00 0.29 0.00 43 1012.7
20260507093259 51 282 1.0 6.0 0.00 0.29 0.00 43 1012.8
20260507092951 50 292 1.0 6.0 0.00 0.29 0.00 43 1012.8
20260507092228 51 324 0.0 6.0 0.00 0.29 0.00 44 1012.5
20260507091922 51 24 0.0 6.0 0.00 0.29 0.00 45 1012.5
20260507091618 51 248 0.0 3.0 0.00 0.29 0.00 44 1012.5
20260507091313 51 271 0.0 3.0 0.00 0.29 0.00 44 1012.4
20260507091002 51 343 0.0 3.0 0.00 0.29 0.00 43 1012.5
20260507090651 51 307 0.0 2.0 0.00 0.29 0.00 44 1012.4
20260507085933 51 278 0.0 6.0 0.00 0.29 0.00 44 1012.3
20260507084748 51 325 1.0 5.0 0.00 0.29 0.00 45 1012.4
20260507084449 51 270 1.0 5.0 0.00 0.29 0.00 45 1012.3
20260507083720 51 348 0.0 5.0 0.00 0.29 0.00 46 1012.3
20260507083412 51 21 0.0 5.0 0.00 0.29 0.00 47 1012.5
20260507082651 51 337 0.0 0.0 0.00 0.29 0.00 48 1012.3
20260507082355 52 336 0.0 0.0 0.00 0.29 0.00 47 1012.3
20260507081207 52 355 0.0 0.0 0.00 0.29 0.00 49 1012.3
20260507080908 52 291 0.0 0.0 0.00 0.29 0.00 46 1012.4
20260507080611 52 291 0.0 0.0 0.00 0.29 0.00 47 1012.4
20260507080309 52 11 0.0 2.0 0.00 0.29 0.00 49 1012.5
20260507080007 52 42 0.0 2.0 0.00 0.29 0.00 49 1012.4
20260507075708 52 19 0.0 2.0 0.00 0.29 0.00 47 1012.4
20260507075402 52 38 0.0 1.0 0.00 0.29 0.00 48 1012.5
20260507075054 52 5 0.0 0.0 0.00 0.29 0.00 48 1012.4
20260507074758 52 51 0.0 0.0 0.00 0.29 0.00 51 1012.4
20260507074032 52 61 0.0 0.0 0.00 0.29 0.00 49 1012.4
20260507073726 52 78 0.0 0.0 0.00 0.29 0.00 49 1012.3
20260507073423 52 36 0.0 2.0 0.00 0.29 0.00 50 1012.4
20260507073125 52 38 0.0 2.0 0.00 0.29 0.00 51 1012.4
20260507072820 52 40 0.0 2.0 0.00 0.29 0.00 48 1012.5
20260507072515 52 11 0.0 6.0 0.00 0.29 0.00 47 1012.5
20260507072210 52 0 0.0 6.0 0.00 0.29 0.00 48 1012.5
20260507071453 52 48 0.0 6.0 0.00 0.29 0.00 49 1012.4
20260507071156 52 239 0.0 6.0 0.00 0.29 0.00 49 1012.5
20260507070855 52 355 0.0 6.0 0.00 0.29 0.00 49 1012.4
20260507070542 52 0 0.0 3.0 0.00 0.29 0.00 50 1012.3
20260507070244 52 82 0.0 0.0 0.00 0.29 0.00 51 1012.3
20260507065940 52 197 1.0 6.0 0.00 0.29 0.00 51 1012.4
20260507065627 52 0 0.0 6.0 0.00 0.29 0.00 52 1012.4
20260507065331 52 355 1.0 6.0 0.00 0.29 0.00 51 1012.4
20260507065035 52 15 0.0 4.0 0.00 0.29 0.00 52 1012.4
20260507064727 53 345 1.0 4.0 0.00 0.29 0.00 52 1012.4
20260507064431 52 309 1.0 4.0 0.00 0.29 0.00 51 1012.5
20260507064135 52 265 1.0 6.0 0.00 0.29 0.00 52 1012.5
20260507063826 53 335 1.0 6.0 0.00 0.29 0.00 52 1012.3
20260507063530 53 309 1.0 6.0 0.00 0.29 0.00 54 1012.3
20260507063220 53 344 1.0 9.0 0.00 0.29 0.00 54 1012.3
20260507062914 53 242 1.0 9.0 0.00 0.29 0.00 55 1012.4
20260507062603 53 16 2.0 9.0 0.00 0.29 0.00 56 1012.3
20260507062300 53 0 3.0 9.0 0.00 0.29 0.00 56 1012.4
20260507062004 53 34 3.0 9.0 0.00 0.29 0.00 56 1012.5
20260507061652 53 311 2.0 9.0 0.00 0.29 0.00 57 1012.3
20260507060912 53 293 1.0 7.0 0.00 0.29 0.00 61 1012.3
20260507060609 53 310 1.0 7.0 0.00 0.29 0.00 62 1012.3
20260507060306 54 344 1.0 7.0 0.00 0.29 0.00 62 1012.3
20260507060003 54 340 2.0 7.0 0.00 0.29 0.00 63 1012.3
20260507054808 54 287 1.0 7.0 0.00 0.29 0.00 62 1012.3
20260507054458 54 351 1.0 7.0 0.00 0.29 0.00 62 1012.3
20260507054146 53 271 1.0 7.0 0.00 0.29 0.00 62 1012.3
20260507053415 53 298 1.0 7.0 0.00 0.29 0.00 63 1012.3
20260507053118 54 312 1.0 4.0 0.00 0.29 0.00 64 1012.4
20260507052402 54 355 0.0 4.0 0.00 0.29 0.00 65 1012.3
20260507052053 54 294 0.0 1.0 0.00 0.29 0.00 66 1012.4
20260507051740 54 298 0.0 2.0 0.00 0.29 0.00 66 1012.4
20260507051438 54 297 0.0 2.0 0.00 0.29 0.00 66 1012.3
20260507051140 54 298 0.0 1.0 0.00 0.29 0.00 66 1012.2
20260507050840 54 275 0.0 1.0 0.00 0.29 0.00 65 1012.2
20260507050540 54 277 0.0 0.0 0.00 0.29 0.00 65 1012.1
20260507050228 54 244 0.0 3.0 0.00 0.29 0.00 65 1012.3
20260507045507 55 275 1.0 5.0 0.00 0.29 0.00 65 1012.3
20260507045154 55 234 0.0 5.0 0.00 0.29 0.00 63 1012.1
20260507044014 55 343 1.0 4.0 0.00 0.29 0.00 63 1012.2
20260507043714 55 17 1.0 4.0 0.00 0.29 0.00 62 1012.2
20260507043415 55 350 1.0 4.0 0.00 0.29 0.00 61 1012.3
20260507043104 55 325 1.0 4.0 0.00 0.29 0.00 61 1012.5
20260507042758 55 333 1.0 4.0 0.00 0.29 0.00 61 1012.5
20260507042453 55 355 1.0 4.0 0.00 0.29 0.00 61 1012.6
20260507042140 55 312 1.0 7.0 0.00 0.29 0.00 62 1012.6
20260507041833 56 323 1.0 7.0 0.00 0.29 0.00 62 1012.6
20260507041105 56 15 1.0 7.0 0.00 0.29 0.00 61 1012.3
20260507040806 56 261 1.0 7.0 0.00 0.29 0.00 60 1012.4
20260507040456 56 347 1.0 7.0 0.00 0.29 0.00 60 1012.3
20260507035738 56 319 1.0 0.0 0.00 0.29 0.28 61 1012.4
20260507035426 56 324 1.0 5.0 0.00 0.29 0.28 60 1012.3
20260507035126 56 279 0.0 3.0 0.00 0.29 0.28 60 1012.4
20260507034829 56 294 0.0 3.0 0.00 0.29 0.28 60 1012.4
20260507034526 56 267 0.0 3.0 0.00 0.29 0.28 60 1012.5
20260507034215 56 23 0.0 3.0 0.00 0.29 0.28 60 1012.4
20260507033446 56 264 0.0 5.0 0.00 0.29 0.28 60 1012.3
20260507032306 56 264 1.0 5.0 0.00 0.29 0.28 60 1012.4
20260507031957 56 280 1.0 3.0 0.00 0.29 0.28 60 1012.3
20260507031221 56 295 2.0 9.0 0.00 0.29 0.28 60 1012.3
20260507030908 56 336 1.0 9.0 0.00 0.29 0.28 60 1012.1
20260507030610 56 279 1.0 5.0 0.00 0.29 0.28 59 1011.8
20260507030311 56 301 0.0 4.0 0.00 0.29 0.28 60 1011.7
20260507030005 56 319 0.0 4.0 0.00 0.29 0.28 60 1011.8
20260507025650 56 222 0.0 4.0 0.00 0.29 0.28 59 1011.8
20260507025348 56 326 0.0 4.0 0.00 0.29 0.28 60 1011.8
20260507024633 57 0 1.0 4.0 0.00 0.29 0.28 60 1012.0
20260507024337 57 345 1.0 4.0 0.00 0.29 0.28 60 1012.1
20260507024029 57 319 1.0 4.0 0.00 0.29 0.28 60 1011.6
20260507023716 57 0 0.0 4.0 0.00 0.29 0.28 61 1011.5
20260507023418 57 26 0.0 4.0 0.00 0.29 0.28 61 1011.7
20260507022701 57 335 0.0 5.0 0.00 0.29 0.28 62 1012.0
20260507022359 57 328 0.0 5.0 0.00 0.29 0.28 62 1012.0
20260507022058 57 342 1.0 5.0 0.00 0.29 0.28 62 1011.9
20260507021748 57 15 1.0 11.0 0.00 0.29 0.28 62 1012.0
20260507021446 57 271 1.0 11.0 0.00 0.29 0.28 62 1011.9
20260507021141 57 297 2.0 11.0 0.00 0.29 0.28 62 1011.8
20260507020835 57 317 3.0 11.0 0.00 0.29 0.28 62 1011.5
20260507020528 57 331 3.0 11.0 0.00 0.29 0.28 62 1011.6
20260507015757 58 350 3.0 9.0 0.00 0.29 0.28 63 1011.6
20260507015501 58 349 3.0 9.0 0.00 0.29 0.28 62 1011.6
20260507014727 58 346 3.0 9.0 0.00 0.29 0.28 63 1011.5
20260507014429 58 311 2.0 10.0 0.00 0.29 0.28 62 1011.6
20260507014126 58 300 2.0 10.0 0.00 0.29 0.28 63 1011.8
20260507013828 58 308 2.0 10.0 0.00 0.29 0.28 63 1011.6
20260507013530 58 325 2.0 12.0 0.00 0.29 0.28 62 1011.5
20260507013227 58 242 3.0 12.0 0.00 0.29 0.28 62 1011.3